[[{"header":{"parameterUnit":"m.s-1","parameterCategory":1,"la1":30.2992,"la2":30.254,"lo1":-89.0895,"lo2":-89.0443,"dy":0.0025,"dx":0.0025,"nx":19,"ny":19,"refTime":"2026-03-07T03:00:00:Z","depth":0,"parameterNumber":2,"parameterNumberName":"U-component_of_WINDS"},"data":[0,0,0,0.3477,0.3477,0.3476,0.3476,0.3469,0.3469,0,0,0,0,0,0,0,0,0,0,0,0.3473,0.3473,0.3477,0.3477,0.3476,0.3476,0.3469,0.3469,0,0,0,0,0,0,0,0,0,0,0,0.3473,0.3473,0.3473,0.3477,0.3476,0.3476,0.3469,0.3472,0,0,0,0,0,0,0,0,0,0,0.3474,0.3466,0.3473,0.3473,0.3477,0.3476,0.3476,0.3472,0.3472,0.3467,0,0.3461,0,0.3465,0.3468,0.3468,0,0,0,0.348,0.3466,0.347,0.3473,0.3477,0.3476,0.3477,0.3472,0.3472,0.3466,0.3461,0.3461,0.3465,0.3468,0.3468,0.343,0.343,0,0,0.348,0.3471,0.347,0.347,0.3469,0.3477,0.3477,0.3472,0.3465,0.3461,0.3461,0.3465,0.3468,0.3468,0.343,0.343,0,0,0,0.3478,0.3471,0.3475,0.347,0.347,0.3477,0.3477,0.3466,0.3468,0.3461,0.3465,0.3468,0.3468,0.3431,0.343,0.3406,0,0,0,0.3479,0.347,0.3475,0.3469,0.347,0.3468,0.3471,0.3468,0.3468,0.3465,0.3468,0.3468,0.3431,0.343,0.3408,0.3396,0,0,0,0.3475,0.3469,0.3468,0.3468,0.3468,0.3468,0.347,0.3468,0.347,0.3468,0.3468,0.3431,0.3431,0.3409,0.3398,0.3385,0,0,0,0.3468,0.3445,0.3467,0.3443,0.3467,0.3453,0.347,0.346,0.3455,0.3468,0.3431,0.343,0.3409,0.34,0.3386,0.3372,0.3365,0,0,0.3434,0.344,0.3427,0.3447,0.3427,0.3454,0.343,0.3434,0.3442,0.3434,0.3433,0.3407,0.3399,0.3385,0.3329,0.3323,0,0,0,0.3413,0.3404,0.34,0.3396,0.34,0.3402,0.3411,0.3413,0.3407,0.3436,0.3399,0.3394,0.3386,0.338,0.3375,0.337,0.3427,0.3427,0.3427,0.3351,0.3364,0.3343,0.3357,0.3352,0.3364,0.3362,0.3366,0.3379,0.337,0.3368,0.3332,0.3325,0.3321,0.3316,0.3361,0.3361,0.3361,0.3361,0.3302,0.3292,0.3312,0.3299,0.3314,0.3303,0.3314,0.3324,0.3317,0.3334,0.3329,0.3347,0.3315,0.3311,0.3359,0.3359,0.336,0.336,0.336,0.3263,0.326,0.3264,0.3261,0.3258,0.3272,0.3266,0.3279,0.329,0.3285,0.3285,0.3285,0.3288,0.3284,0.3284,0.3283,0.3283,0.3283,0.3283,0.3221,0.3226,0.3219,0.3223,0.3223,0.3226,0.3238,0.3239,0.3243,0.3253,0.3254,0.3268,0.3309,0.3319,0.3281,0.3282,0.3282,0.3282,0.3282,0.3168,0.3183,0.3171,0.3172,0.3179,0.3176,0.3193,0.3195,0.3197,0.3194,0.3211,0.3238,0.3246,0.325,0.3259,0.3207,0.3207,0.3207,0.3207,0.3135,0.3141,0.3134,0.3135,0.3137,0.3152,0.3141,0.3152,0.3165,0.3168,0.3177,0.319,0.3193,0.3199,0.3204,0.3212,0.315,0.315,0.315,0.3104,0.3111,0.3098,0.3112,0.312,0.3126,0.3116,0.3117,0.3135,0.3148,0.3171,0.3173,0.3194,0.3199,0.3212,0.3219,0.3235,0,0]},{"header":{"parameterUnit":"m.s-1","parameterCategory":1,"la1":30.2992,"la2":30.254,"lo1":-89.0895,"lo2":-89.0443,"dy":0.0025,"dx":0.0025,"nx":19,"ny":19,"refTime":"2026-03-07T03:00:00:Z","depth":0,"parameterNumber":3,"parameterNumberName":"V-component_of_WINDS"},"data":[0,0,0,0.8065,0.8068,0.8224,0.8225,0.841,0.8412,0,0,0,0,0,0,0,0,0,0,0,0.801,0.8011,0.8065,0.8068,0.8224,0.8225,0.841,0.8412,0,0,0,0,0,0,0,0,0,0,0,0.801,0.8011,0.8012,0.8069,0.8224,0.8225,0.8409,0.8297,0,0,0,0,0,0,0,0,0,0,0.8148,0.8089,0.8011,0.8012,0.807,0.8224,0.8225,0.8292,0.8304,0.8334,0,0.8357,0,0.8387,0.8423,0.8424,0,0,0,0.8075,0.8079,0.8128,0.8012,0.8071,0.8223,0.8156,0.8299,0.8313,0.835,0.836,0.8367,0.839,0.8424,0.8425,0.8573,0.8573,0,0,0.8066,0.8034,0.8119,0.8137,0.8112,0.8151,0.816,0.8307,0.8317,0.8361,0.8372,0.8393,0.8425,0.8427,0.8572,0.8573,0,0,0,0.8037,0.8027,0.8074,0.8129,0.8158,0.8155,0.8166,0.831,0.8328,0.8374,0.8395,0.8426,0.8428,0.8572,0.8572,0.856,0,0,0,0.8032,0.801,0.807,0.8051,0.8155,0.8236,0.8165,0.8318,0.8335,0.8395,0.8426,0.843,0.8572,0.8572,0.8559,0.856,0,0,0,0.8003,0.8007,0.8027,0.8049,0.8115,0.8234,0.8261,0.8322,0.8348,0.8424,0.8431,0.8571,0.8572,0.8559,0.8559,0.859,0,0,0,0.7962,0.8013,0.8026,0.8091,0.8113,0.8225,0.826,0.8345,0.8408,0.8427,0.8572,0.8572,0.8559,0.8559,0.8589,0.8611,0.8616,0,0,0.8008,0.8017,0.8058,0.8074,0.8175,0.8204,0.8303,0.8392,0.8429,0.8523,0.8527,0.856,0.8559,0.859,0.8656,0.866,0,0,0,0.8062,0.8091,0.8125,0.8183,0.8252,0.8311,0.8388,0.8421,0.8502,0.847,0.8579,0.858,0.8599,0.8611,0.8615,0.8634,0.8576,0.8576,0.8576,0.808,0.8125,0.8196,0.8259,0.8315,0.8394,0.8444,0.8502,0.853,0.8555,0.8584,0.8618,0.8631,0.8634,0.8653,0.8598,0.8598,0.8598,0.8598,0.8153,0.8201,0.8237,0.8319,0.8366,0.8435,0.8513,0.8531,0.8603,0.8601,0.862,0.8615,0.8637,0.8656,0.8597,0.8597,0.8597,0.8597,0.8597,0.8171,0.8202,0.8241,0.833,0.8394,0.8456,0.8523,0.8563,0.8601,0.862,0.8655,0.8656,0.8662,0.8634,0.8634,0.8634,0.8634,0.8634,0.8634,0.8175,0.8219,0.8271,0.8348,0.8391,0.8452,0.8531,0.8575,0.8633,0.8657,0.8658,0.8685,0.863,0.8616,0.8636,0.8636,0.8636,0.8635,0.8635,0.8234,0.8227,0.8307,0.835,0.8443,0.8504,0.8554,0.8639,0.8681,0.8713,0.8735,0.8688,0.8701,0.8698,0.8687,0.8724,0.8724,0.8724,0.8724,0.825,0.826,0.8351,0.8417,0.8486,0.8539,0.8629,0.869,0.8753,0.8782,0.8782,0.8771,0.8766,0.8782,0.8777,0.8768,0.8825,0.8825,0.8825,0.829,0.8308,0.8377,0.8438,0.8514,0.8578,0.8664,0.8739,0.8809,0.883,0.8806,0.8802,0.8783,0.8775,0.8797,0.8789,0.8773,0,0]}]]